GW6717 Weather Reports


Display with metric or nautical units.
time (UTC)temp
F
wind
direction
speed
MPH
gust
MPH
rain 1hr
in
rain 24hr
in
rain mn
in
humidity
%
barometer
mb
20260509201541 66 310 4.0 4.0 0.00 0.18 0.18 61 1007.5
20260509201040 64 201 4.0 6.0 0.00 0.18 0.18 63 1007.5
20260509200539 64 206 1.0 3.0 0.00 0.18 0.18 66 1007.6
20260509200036 64 27 2.0 3.0 0.00 0.18 0.18 65 1007.8
20260509195532 66 184 6.0 6.0 0.00 0.18 0.18 61 1007.9
20260509195032 66 212 3.0 3.0 0.00 0.18 0.18 64 1007.8
20260509194526 65 299 2.0 3.0 0.00 0.18 0.18 67 1007.9
20260509194024 65 203 4.0 4.0 0.00 0.18 0.18 66 1008.2
20260509193524 66 205 6.0 7.0 0.00 0.18 0.18 64 1008.0
20260509193022 64 206 3.0 4.0 0.00 0.18 0.18 68 1008.1
20260509192518 64 204 8.0 9.0 0.00 0.18 0.18 66 1008.1
20260509192013 63 204 5.0 6.0 0.00 0.18 0.18 66 1008.2
20260509191508 62 188 1.0 4.0 0.00 0.18 0.18 70 1008.3
20260509191004 63 218 3.0 3.0 0.00 0.18 0.18 68 1008.4
20260509190501 62 288 1.0 2.0 0.00 0.18 0.18 70 1008.4
20260509185959 62 202 4.0 6.0 0.00 0.18 0.18 69 1008.4
20260509185455 62 215 4.0 6.0 0.00 0.18 0.18 70 1008.6
20260509184952 62 195 4.0 4.0 0.00 0.18 0.18 71 1008.5
20260509184450 63 199 4.0 4.0 0.00 0.18 0.18 70 1008.7
20260509183946 62 278 1.0 2.0 0.00 0.18 0.18 71 1008.5
20260509183441 62 211 4.0 4.0 0.00 0.18 0.18 73 1008.6
20260509182938 62 99 2.0 3.0 0.00 0.18 0.18 74 1008.7
20260509182434 63 127 2.0 2.0 0.00 0.18 0.18 72 1008.7
20260509181931 61 180 4.0 6.0 0.00 0.18 0.18 74 1008.8
20260509181429 61 73 2.0 2.0 0.00 0.18 0.18 76 1008.9
20260509180926 60 204 2.0 3.0 0.00 0.18 0.18 75 1008.7
20260509180421 60 36 3.0 4.0 0.00 0.18 0.18 76 1008.9
20260509175919 60 21 4.0 6.0 0.00 0.18 0.18 76 1008.9
20260509175415 59 203 2.0 2.0 0.00 0.18 0.18 76 1008.9
20260509174912 59 182 5.0 6.0 0.00 0.18 0.18 77 1009.0
20260509174408 59 202 4.0 4.0 0.00 0.18 0.18 77 1008.9
20260509173904 59 344 1.0 2.0 0.00 0.18 0.18 80 1008.9
20260509173403 59 113 4.0 6.0 0.00 0.18 0.18 80 1008.9
20260509172900 59 12 1.0 1.0 0.00 0.18 0.18 79 1008.8
20260509172357 60 56 0.0 1.0 0.00 0.18 0.18 80 1008.7
20260509171853 60 176 2.0 2.0 0.00 0.18 0.18 81 1008.6
20260509171349 59 206 4.0 4.0 0.00 0.18 0.18 80 1008.8
20260509170846 60 194 3.0 3.0 0.00 0.18 0.18 80 1008.7
20260509170342 60 171 1.0 2.0 0.00 0.18 0.18 82 1008.6
20260509165842 60 343 2.0 3.0 0.00 0.18 0.18 81 1008.9
20260509165336 59 196 2.0 4.0 0.00 0.18 0.18 80 1008.6
20260509164833 60 194 5.0 7.0 0.00 0.18 0.18 83 1008.6
20260509164329 60 169 1.0 2.0 0.00 0.18 0.18 83 1008.6
20260509163825 60 210 4.0 4.0 0.00 0.18 0.18 80 1008.4
20260509163323 60 163 5.0 6.0 0.00 0.18 0.18 82 1008.6
20260509162822 59 38 1.0 1.0 0.00 0.18 0.18 85 1008.3
20260509162320 60 177 4.0 4.0 0.00 0.18 0.18 86 1008.7
20260509161816 58 229 3.0 4.0 0.00 0.18 0.18 89 1008.7
20260509161313 58 217 2.0 2.0 0.00 0.18 0.18 90 1008.9
20260509160808 58 255 2.0 2.0 0.00 0.18 0.18 92 1008.7
20260509160305 58 189 2.0 2.0 0.00 0.18 0.18 94 1008.7
20260509155800 58 193 3.0 3.0 0.00 0.18 0.18 94 1008.9
20260509155257 57 216 2.0 2.0 0.00 0.18 0.18 95 1008.5
20260509154753 54 16 1.0 2.0 0.00 0.18 0.18 95 1008.6
20260509154250 54 308 2.0 2.0 0.00 0.18 0.18 95 1008.6
20260509153747 54 309 1.0 1.0 0.00 0.18 0.18 95 1008.5
20260509153243 54 230 2.0 2.0 0.00 0.18 0.18 95 1008.7
20260509152740 54 191 2.0 3.0 0.00 0.18 0.18 95 1008.8
20260509152236 54 20 1.0 2.0 0.00 0.18 0.18 95 1008.8
20260509151733 54 287 2.0 2.0 0.00 0.18 0.18 95 1008.7
20260509151230 54 194 1.0 2.0 0.00 0.18 0.18 96 1008.6
20260509150728 54 346 2.0 2.0 0.00 0.18 0.18 95 1008.6
20260509150226 53 320 1.0 2.0 0.00 0.18 0.18 96 1008.8
20260509145723 53 313 2.0 2.0 0.00 0.18 0.18 96 1008.8
20260509145223 53 34 1.0 1.0 0.00 0.18 0.18 96 1008.8
20260509144719 54 204 2.0 2.0 0.00 0.18 0.18 96 1008.9
20260509144216 54 321 1.0 1.0 0.00 0.18 0.18 96 1008.8
20260509143714 53 247 1.0 2.0 0.00 0.18 0.18 96 1008.8
20260509143211 53 307 2.0 2.0 0.00 0.18 0.18 96 1008.7
20260509142706 53 89 1.0 1.0 0.07 0.18 0.18 96 1008.5
20260509142203 53 23 0.0 1.0 0.07 0.18 0.18 96 1008.6
20260509141659 53 52 2.0 3.0 0.00 0.17 0.17 96 1008.8
20260509141156 53 285 2.0 2.0 0.00 0.17 0.17 96 1008.7
20260509140652 53 25 2.0 3.0 0.00 0.17 0.17 96 1008.7
20260509140150 53 19 2.0 3.0 0.00 0.17 0.17 96 1008.7
20260509135647 53 62 1.0 1.0 0.00 0.17 0.17 96 1008.8
20260509135146 53 65 2.0 2.0 0.00 0.17 0.17 96 1008.7
20260509134641 53 292 1.0 2.0 0.00 0.17 0.17 96 1008.9
20260509134139 52 1 1.0 1.0 0.00 0.17 0.17 96 1008.9
20260509133636 52 27 0.0 0.0 0.00 0.17 0.17 96 1008.8
20260509133133 52 336 1.0 1.0 0.00 0.17 0.17 96 1009.0
20260509132632 52 204 1.0 2.0 0.12 0.17 0.17 96 1008.9
20260509132130 52 341 2.0 2.0 0.12 0.17 0.17 96 1009.0
20260509131625 52 38 0.0 0.0 0.00 0.15 0.15 96 1009.1
20260509131123 52 31 0.0 1.0 0.05 0.15 0.15 96 1009.0
20260509130618 52 29 1.0 2.0 0.05 0.15 0.15 96 1009.0
20260509130115 52 46 0.0 0.0 0.07 0.14 0.14 96 1009.0
20260509125611 52 37 1.0 1.0 0.19 0.14 0.14 96 1008.9
20260509125108 52 211 3.0 3.0 0.12 0.13 0.13 95 1009.0
20260509124605 52 346 0.0 1.0 0.05 0.12 0.12 95 1009.0
20260509124102 52 35 1.0 1.0 0.00 0.11 0.11 95 1009.2
20260509123600 52 77 0.0 1.0 0.07 0.11 0.11 95 1009.2
20260509123056 52 339 1.0 2.0 0.12 0.11 0.11 95 1009.2
20260509122552 52 145 2.0 3.0 0.05 0.10 0.10 95 1009.2
20260509122050 52 26 0.0 1.0 0.07 0.09 0.09 95 1009.3
20260509121546 52 193 2.0 3.0 0.07 0.09 0.09 95 1009.1
20260509121048 52 218 2.0 2.0 0.05 0.08 0.08 94 1009.3
20260509120542 52 36 0.0 0.0 0.12 0.08 0.08 94 1009.3
20260509120040 52 56 1.0 1.0 0.07 0.07 0.07 94 1009.2
20260509115536 52 311 1.0 2.0 0.00 0.06 0.06 94 1009.3
20260509115034 52 190 2.0 3.0 0.00 0.06 0.06 94 1009.2
20260509114532 52 37 1.0 1.0 0.05 0.06 0.06 93 1009.1
20260509114031 52 208 2.0 2.0 0.05 0.06 0.06 93 1009.2
20260509113529 52 194 3.0 3.0 0.05 0.06 0.06 93 1009.1
20260509113026 52 267 3.0 3.0 0.07 0.05 0.05 93 1008.9
20260509112522 52 201 2.0 2.0 0.12 0.05 0.05 92 1009.1
20260509112019 52 3 1.0 2.0 0.05 0.04 0.04 91 1009.0
20260509111517 52 203 2.0 3.0 0.07 0.03 0.03 91 1009.0
20260509111014 52 162 2.0 3.0 0.07 0.03 0.03 91 1008.9
20260509110510 52 200 2.0 3.0 0.00 0.02 0.02 92 1008.9
20260509110007 52 61 1.0 1.0 0.00 0.02 0.02 92 1008.8
20260509105506 52 197 2.0 3.0 0.00 0.02 0.02 93 1008.8
20260509105003 51 291 0.0 1.0 0.00 0.02 0.02 94 1008.7
20260509104459 51 335 1.0 1.0 0.00 0.02 0.02 94 1008.6
20260509103957 51 358 1.0 1.0 0.00 0.02 0.02 94 1008.7
20260509103454 51 274 2.0 2.0 0.00 0.02 0.02 94 1008.8
20260509102952 51 22 1.0 1.0 0.00 0.02 0.02 95 1008.8
20260509102449 51 291 2.0 2.0 0.00 0.02 0.02 95 1008.7
20260509101946 51 306 1.0 2.0 0.00 0.02 0.02 95 1009.1
20260509101442 51 37 1.0 1.0 0.00 0.02 0.02 95 1008.7
20260509100939 51 192 2.0 3.0 0.00 0.02 0.02 96 1008.8
20260509100437 51 16 0.0 1.0 0.00 0.02 0.02 96 1008.7
20260509095933 51 307 1.0 1.0 0.00 0.02 0.02 96 1008.8
20260509095430 50 317 1.0 1.0 0.00 0.02 0.02 96 1008.9
20260509094927 50 10 0.0 0.0 0.00 0.02 0.02 96 1008.7
20260509094424 50 18 0.0 0.0 0.00 0.02 0.02 96 1009.0
20260509093922 50 11 0.0 0.0 0.05 0.02 0.02 96 1009.0
20260509093419 50 13 0.0 0.0 0.05 0.02 0.02 96 1008.8
20260509092917 50 14 0.0 0.0 0.00 0.01 0.01 96 1008.9
20260509092414 50 24 0.0 0.0 0.00 0.01 0.01 96 1009.1
20260509091913 50 17 0.0 0.0 0.00 0.01 0.01 96 1009.2
20260509091409 50 20 0.0 0.0 0.07 0.01 0.01 96 1009.3
20260509090907 50 14 0.0 0.0 0.07 0.01 0.01 96 1009.3
20260509090403 50 22 0.0 0.0 0.00 0.00 0.00 96 1009.2
20260509085901 50 22 0.0 0.0 0.00 0.00 0.00 96 1009.2
20260509085358 50 22 0.0 0.0 0.00 0.00 0.00 96 1009.3
20260509084854 50 22 0.0 0.0 0.00 0.00 0.00 96 1009.4
20260509084351 50 22 0.0 0.0 0.00 0.00 0.00 96 1009.4
20260509083849 50 17 0.0 0.0 0.00 0.00 0.00 96 1009.3
20260509083346 50 13 0.0 0.0 0.00 0.00 0.00 96 1009.5
20260509082842 50 13 0.0 0.0 0.00 0.00 0.00 96 1009.6
20260509082339 50 19 0.0 0.0 0.00 0.00 0.00 96 1009.3
20260509081837 50 19 0.0 0.0 0.00 0.00 0.00 96 1009.3
20260509081333 50 19 0.0 0.0 0.00 0.00 0.00 96 1009.2
20260509080831 50 19 0.0 0.0 0.00 0.00 0.00 96 1009.2
20260509080329 50 19 0.0 0.0 0.00 0.00 0.00 96 1009.4
20260509075827 50 19 0.0 0.0 0.00 0.00 0.00 96 1009.1
20260509075324 50 20 0.0 0.0 0.00 0.00 0.00 95 1009.0
20260509074821 50 19 0.0 0.0 0.00 0.00 0.00 95 1009.2
20260509074319 49 19 0.0 0.0 0.00 0.00 0.00 95 1009.3
20260509073815 50 19 0.0 0.0 0.00 0.00 0.00 95 1009.4
20260509073311 50 19 0.0 0.0 0.00 0.00 0.00 95 1009.1
20260509072808 50 19 0.0 0.0 0.00 0.00 0.00 95 1009.0
20260509072306 50 20 0.0 0.0 0.00 0.00 0.00 95 1009.0
20260509071801 50 17 0.0 0.0 0.00 0.00 0.00 95 1009.1
20260509071258 50 11 0.0 0.0 0.00 0.00 0.00 95 1009.1
20260509070755 50 10 0.0 0.0 0.00 0.00 0.00 95 1008.9
20260509070251 50 11 0.0 0.0 0.00 0.00 0.00 95 1008.9
20260509065748 50 10 0.0 0.0 0.00 0.00 0.00 95 1009.0
20260509065244 50 11 0.0 0.0 0.00 0.00 0.00 95 1009.0
20260509064741 50 16 0.0 0.0 0.00 0.00 0.00 95 1009.2
20260509064238 50 21 0.0 0.0 0.00 0.00 0.00 95 1009.3
20260509063736 50 20 0.0 0.0 0.00 0.00 0.00 95 1009.1
20260509063232 50 19 0.0 0.0 0.00 0.00 0.00 95 1009.3
20260509062729 50 19 0.0 0.0 0.00 0.00 0.00 95 1009.5
20260509062226 50 19 0.0 0.0 0.00 0.00 0.00 95 1009.6
20260509061723 50 21 0.0 0.0 0.00 0.00 0.00 95 1009.8
20260509061221 50 19 0.0 0.0 0.00 0.00 0.00 95 1009.7
20260509060718 50 19 0.0 0.0 0.00 0.00 0.00 95 1009.6
20260509060214 50 18 0.0 0.0 0.00 0.00 0.00 95 1009.6
20260509055710 49 22 0.0 0.0 0.00 0.00 0.00 95 1009.8
20260509055206 49 25 0.0 0.0 0.00 0.00 0.00 95 1009.7
20260509054703 49 25 0.0 0.0 0.00 0.00 0.00 95 1010.1
20260509054200 49 25 0.0 0.0 0.00 0.00 0.00 95 1009.7
20260509053659 49 25 0.0 0.0 0.00 0.00 0.00 95 1010.1
20260509053155 49 26 0.0 0.0 0.00 0.00 0.00 95 1010.1
20260509052653 50 26 0.0 0.0 0.00 0.00 0.00 95 1010.2
20260509052150 50 26 0.0 0.0 0.00 0.00 0.00 95 1010.3
20260509051648 50 26 0.0 0.0 0.00 0.00 0.00 95 1010.2
20260509051145 49 20 0.0 0.0 0.00 0.00 0.00 95 1010.1
20260509050642 50 20 0.0 0.0 0.00 0.00 0.00 94 1010.3
20260509050139 50 20 0.0 0.0 0.00 0.00 0.00 94 1010.2
20260509045636 50 21 0.0 0.0 0.00 0.00 0.00 94 1010.0
20260509045133 50 21 0.0 0.0 0.00 0.00 0.00 94 1010.3
20260509044630 50 14 0.0 0.0 0.00 0.00 0.00 94 1010.4
20260509044127 50 16 0.0 0.0 0.00 0.00 0.00 94 1010.2
20260509043624 50 17 0.0 0.0 0.00 0.00 0.00 94 1010.6
20260509043119 50 17 0.0 0.0 0.00 0.00 0.00 94 1010.5
20260509042616 50 17 0.0 0.0 0.00 0.00 0.00 94 1010.6
20260509042112 50 17 0.0 0.0 0.00 0.00 0.00 94 1010.7
20260509041609 50 17 0.0 0.0 0.00 0.00 0.00 94 1010.9
20260509041106 50 22 0.0 0.0 0.00 0.00 0.00 94 1010.9
20260509040605 50 22 0.0 0.0 0.00 0.00 0.00 93 1010.8
20260509040101 50 22 0.0 0.0 0.00 0.04 0.04 93 1010.9
20260509035558 50 22 0.0 0.0 0.00 0.04 0.04 93 1010.9
20260509035055 50 22 0.0 0.0 0.00 0.04 0.04 93 1011.0
20260509034553 50 22 0.0 0.0 0.00 0.04 0.04 93 1011.2
20260509034050 50 22 0.0 0.0 0.00 0.04 0.04 93 1011.6
20260509033547 50 22 0.0 0.0 0.00 0.04 0.04 93 1011.2
20260509033043 50 22 0.0 0.0 0.00 0.04 0.04 93 1011.8
20260509032541 50 22 0.0 0.0 0.00 0.04 0.04 93 1011.6
20260509032038 51 22 0.0 0.0 0.00 0.04 0.04 93 1011.6
20260509031536 51 14 0.0 0.0 0.00 0.04 0.04 92 1011.7
20260509031033 51 14 0.0 0.0 0.00 0.04 0.04 92 1011.6
20260509030531 51 18 0.0 0.0 0.00 0.04 0.04 92 1011.7
20260509030027 51 18 0.0 0.0 0.07 0.04 0.04 92 1011.9
20260509025523 51 17 0.0 0.0 0.07 0.04 0.04 92 1012.0
20260509025019 51 22 0.0 0.0 0.00 0.03 0.03 92 1011.9
20260509024515 51 18 0.0 0.0 0.00 0.03 0.03 92 1012.0
20260509024012 51 16 0.0 0.0 0.05 0.03 0.03 91 1012.2
20260509023509 51 18 0.0 0.0 0.05 0.03 0.03 91 1012.1
20260509023006 52 28 0.0 0.0 0.00 0.02 0.02 91 1012.2
20260509022502 52 23 0.0 0.0 0.00 0.02 0.02 91 1012.3
20260509022000 52 13 0.0 0.0 0.00 0.02 0.02 91 1012.1
20260509021457 52 26 0.0 0.0 0.00 0.02 0.02 90 1011.9
20260509020954 52 22 0.0 0.0 0.00 0.02 0.02 90 1012.0
20260509020452 52 10 0.0 0.0 0.00 0.02 0.02 90 1011.7
20260509015949 52 9 0.0 0.0 0.00 0.02 0.02 90 1011.7
20260509015448 52 14 0.0 0.0 0.00 0.02 0.02 89 1011.6
20260509014944 52 12 0.0 0.0 0.00 0.02 0.02 89 1011.7
20260509014441 52 14 0.0 0.0 0.07 0.02 0.02 88 1011.3
20260509013937 52 14 0.0 0.0 0.07 0.02 0.02 88 1011.2
20260509013434 52 14 0.0 0.0 0.00 0.01 0.01 87 1011.2
20260509012930 53 13 0.0 0.0 0.00 0.01 0.01 87 1010.9
20260509012426 53 23 0.0 0.0 0.00 0.01 0.01 86 1011.0
20260509011924 53 24 0.0 0.0 0.00 0.01 0.01 86 1011.0
20260509011421 53 23 0.0 0.0 0.00 0.01 0.01 85 1010.8
20260509010919 53 24 0.0 0.0 0.00 0.01 0.01 85 1010.8
20260509010416 53 14 0.0 0.0 0.00 0.01 0.01 84 1010.7
20260509005913 53 12 0.0 0.0 0.00 0.01 0.01 84 1010.6
20260509005411 53 19 0.0 0.0 0.00 0.01 0.01 84 1010.6
20260509004911 53 8 0.0 0.0 0.00 0.01 0.01 84 1010.5
20260509004408 53 18 0.0 0.0 0.00 0.01 0.01 84 1010.4
20260509003905 53 18 0.0 0.0 0.00 0.01 0.01 84 1010.4
20260509003403 53 18 0.0 0.0 0.00 0.01 0.01 85 1010.4
20260509002900 53 18 0.0 0.0 0.00 0.01 0.01 85 1010.6
20260509002358 53 9 0.0 0.0 0.00 0.01 0.01 84 1010.4
20260509001855 54 9 0.0 0.0 0.00 0.01 0.01 84 1010.4
20260509001351 54 10 0.0 0.0 0.00 0.01 0.01 83 1010.3
20260509000848 54 9 0.0 0.0 0.00 0.01 0.01 83 1010.3
20260509000348 54 14 0.0 0.0 0.00 0.01 0.01 83 1010.1
20260508235842 54 14 0.0 0.0 0.00 0.01 0.01 83 1010.2
20260508235339 54 13 0.0 0.0 0.00 0.01 0.01 83 1010.2
20260508234836 54 14 0.0 0.0 0.00 0.01 0.01 82 1010.4
20260508234332 54 13 0.0 0.0 0.00 0.01 0.01 82 1010.5
20260508233831 54 15 0.0 0.0 0.00 0.01 0.01 81 1010.5
20260508233330 54 18 0.0 0.0 0.00 0.01 0.01 81 1010.4
20260508232826 54 18 0.0 0.0 0.00 0.01 0.01 81 1010.5
20260508232323 55 18 0.0 0.0 0.00 0.01 0.01 81 1010.7
20260508231822 55 18 0.0 0.0 0.00 0.01 0.01 80 1010.6
20260508231317 55 18 0.0 0.0 0.00 0.01 0.01 80 1010.5
20260508230814 55 18 0.0 0.0 0.00 0.01 0.01 80 1010.6
20260508230311 55 18 0.0 0.0 0.00 0.01 0.01 81 1010.5
20260508225808 55 16 0.0 0.0 0.00 0.01 0.01 80 1010.5
20260508225306 55 16 0.0 0.0 0.00 0.01 0.01 80 1010.5
20260508224803 55 22 0.0 0.0 0.00 0.01 0.01 80 1010.6
20260508224300 55 22 0.0 0.0 0.00 0.01 0.01 80 1010.5
20260508223757 55 22 0.0 0.0 0.00 0.01 0.01 81 1010.5
20260508223255 55 22 0.0 0.0 0.00 0.01 0.01 80 1010.7
20260508222752 55 22 0.0 0.0 0.00 0.01 0.01 79 1010.8
20260508222249 56 22 0.0 0.0 0.00 0.01 0.01 78 1010.8
20260508221746 56 22 0.0 0.0 0.00 0.01 0.01 77 1010.6
20260508221241 56 22 0.0 0.0 0.00 0.01 0.01 74 1010.6
20260508220737 56 21 0.0 0.0 0.00 0.01 0.01 74 1010.5
20260508220234 57 20 0.0 0.0 0.00 0.01 0.01 75 1010.7
20260508215730 57 19 0.0 0.0 0.00 0.01 0.01 74 1010.6
20260508215227 57 19 1.0 1.0 0.00 0.01 0.01 71 1010.6
20260508214725 57 19 0.0 0.0 0.00 0.01 0.01 70 1010.7
20260508214222 57 20 0.0 0.0 0.00 0.01 0.01 70 1010.7
20260508213718 56 16 0.0 0.0 0.00 0.01 0.01 71 1010.7
20260508213215 56 10 0.0 0.0 0.00 0.01 0.01 75 1010.6
20260508212711 56 22 0.0 0.0 0.00 0.01 0.01 75 1010.4
20260508212208 57 19 0.0 0.0 0.00 0.01 0.01 76 1010.8
20260508211703 57 21 0.0 0.0 0.00 0.01 0.01 75 1011.0
20260508211159 57 20 0.0 0.0 0.00 0.01 0.01 74 1010.8
20260508210657 57 12 0.0 0.0 0.00 0.01 0.01 75 1011.0
20260508210154 57 12 0.0 0.0 0.00 0.01 0.01 74 1010.9
20260508205651 57 24 0.0 0.0 0.00 0.01 0.01 74 1011.0
20260508205147 56 24 0.0 0.0 0.00 0.01 0.01 73 1011.0
20260508204643 56 24 0.0 0.0 0.00 0.01 0.01 72 1011.1
20260508204140 56 25 0.0 0.0 0.00 0.01 0.01 71 1011.1
20260508203636 55 27 0.0 0.0 0.00 0.01 0.01 72 1011.1
20260508203132 56 12 0.0 0.0 0.00 0.01 0.01 76 1011.1
20260508202628 56 11 0.0 0.0 0.00 0.01 0.01 76 1011.3
20260508202126 55 15 0.0 0.0 0.00 0.01 0.01 74 1011.3